Weather in Sayga

Russia / Tomsk District     58°01′40″N   85°25′50″E
В апреле 2022 года жителям России запретили посещать сайт meteo.paraplan.net по решению Генеральной прокуратуры. Аудитория сайта уменьшилась в 10 раз. Владельцы сайта не видят смысла в поддержке погодного сервера в таких условиях. Сайт будет закрыт в октябре.
temp.,
°C
wind,
m/s
gust,
m/s
humid.,
%
clouds,
%
prec.,
mm/h
press.,
hPa
HPBL,
m
3 october, mon
mon301:00−3sw118945 0.0 103910
04:00−4sw119260 0.0 103910
07:00−4ssw119360 0.0 103911
10:00+1sw126629 0.0 1039257
13:00+5sw114814 0.0 1038844
16:00+6sw124594 0.0 1037996
19:000s11675 0.0 103710
22:00−2s11755 0.0 103710
4 october, tue
tue401:00−2s128099 0.0 103613
04:00−3ssw228445 0.0 103614
07:00−3s22865 0.0 103621
10:00+2ssw24635 0.0 1035255
13:00+7ssw354654 0.0 1033841
16:00+7sw3548100 0.0 1032944
19:00+2ssw3771100 0.0 1031151
22:00+2ssw31174100 0.0 1029280
5 october, wed
wed501:00+1sw31096100 0.1 1028495
04:00+1sw41197100 0.6 1026534
07:00+2wsw4997100 0.9 1026586
10:00+2w3897100 0.1 1026569
13:00+3wnw3697100 0.3 1026530
16:00+4nw357484 0.0 1026875
19:00+3w2482100 0.0 1027116
22:00+3w2586100 0.0 1028153
6 october, thu
thu601:00+3w2589100 0.0 1027157
04:00+2wnw259474 0.1 1027149
07:000nnw229882 0.1 102822
10:00+3nnw238271 0.0 1028334
13:00+4nnw3459100 0.0 10281335
16:00+4nnw3458100 0.0 10281187
19:00+3nnw2358100 0.0 102992
22:00+2n1270100 0.0 103069
7 october, fri
fri701:00+2ne1184100 0.0 103039
04:00+1ene128385 0.0 103180
07:00+1se1282100 0.0 103172
10:00+3s236783 0.0 1030395
13:00+6s3453100 0.0 1029997
16:00+6s3556100 0.0 1027956
19:00+4se3866100 0.0 1026304
22:00+3sse31073100 0.0 1025310